Year,Month,Day,Hour,Minute,Value (Times are PST for temperature in C)
2006,02,21,00,00,4.60
2006,02,21,00,01,4.60
2006,02,21,00,02,4.60
2006,02,21,00,03,4.60
2006,02,21,00,04,4.60
2006,02,21,00,05,4.60
2006,02,21,00,06,4.60
2006,02,21,00,07,4.60
2006,02,21,00,08,4.60
2006,02,21,00,09,4.70
2006,02,21,00,10,4.70
2006,02,21,00,11,4.70
2006,02,21,00,12,4.70
2006,02,21,00,13,4.70
2006,02,21,00,14,4.70
2006,02,21,00,15,4.70
2006,02,21,00,16,4.70
2006,02,21,00,17,4.70
2006,02,21,00,18,4.70
2006,02,21,00,19,4.70
2006,02,21,00,20,4.70
2006,02,21,00,21,4.70
2006,02,21,00,22,4.70
2006,02,21,00,23,4.70
2006,02,21,00,24,4.70
2006,02,21,00,25,4.70
2006,02,21,00,26,4.70
2006,02,21,00,27,4.70
2006,02,21,00,28,4.70
2006,02,21,00,29,4.70
2006,02,21,00,30,4.60
2006,02,21,00,31,4.60
2006,02,21,00,32,4.60
2006,02,21,00,33,4.60
2006,02,21,00,34,4.60
2006,02,21,00,35,4.60
2006,02,21,00,36,4.60
2006,02,21,00,37,4.60
2006,02,21,00,38,4.60
2006,02,21,00,39,4.60
2006,02,21,00,40,4.60
2006,02,21,00,41,4.60
2006,02,21,00,42,4.60
2006,02,21,00,43,4.60
2006,02,21,00,44,4.60
2006,02,21,00,45,4.60
2006,02,21,00,46,4.60
2006,02,21,00,47,4.60
2006,02,21,00,48,4.60
2006,02,21,00,49,4.60
2006,02,21,00,50,4.60
2006,02,21,00,51,4.60
2006,02,21,00,52,4.60
2006,02,21,00,53,4.60
2006,02,21,00,54,4.60
2006,02,21,00,55,4.60
2006,02,21,00,56,4.60
2006,02,21,00,57,4.60
2006,02,21,00,58,4.60
2006,02,21,00,59,4.60
2006,02,21,01,00,4.60
2006,02,21,01,01,4.60
2006,02,21,01,02,4.60
2006,02,21,01,03,4.60
2006,02,21,01,04,4.60
2006,02,21,01,05,4.60
2006,02,21,01,06,4.60
2006,02,21,01,07,4.60
2006,02,21,01,08,4.60
2006,02,21,01,09,4.60
2006,02,21,01,10,4.60
2006,02,21,01,11,4.60
2006,02,21,01,12,4.60
2006,02,21,01,13,4.60
2006,02,21,01,14,4.60
2006,02,21,01,15,4.60
2006,02,21,01,16,4.60
2006,02,21,01,17,4.60
2006,02,21,01,18,4.60
2006,02,21,01,19,4.60
2006,02,21,01,20,4.60
2006,02,21,01,21,4.60
2006,02,21,01,22,4.70
2006,02,21,01,23,4.70
2006,02,21,01,24,4.70
2006,02,21,01,25,4.70
2006,02,21,01,26,4.70
2006,02,21,01,27,4.70
2006,02,21,01,28,4.70
2006,02,21,01,29,4.70
2006,02,21,01,30,4.60
2006,02,21,01,31,4.60
2006,02,21,01,32,4.60
2006,02,21,01,33,4.60
2006,02,21,01,34,4.60
2006,02,21,01,35,4.60
2006,02,21,01,36,4.60
2006,02,21,01,37,4.60
2006,02,21,01,38,4.60
2006,02,21,01,39,4.60
2006,02,21,01,40,4.50
2006,02,21,01,41,4.50
2006,02,21,01,42,4.50
2006,02,21,01,43,4.50
2006,02,21,01,44,4.50
2006,02,21,01,45,4.40
2006,02,21,01,46,4.40
2006,02,21,01,47,4.40
2006,02,21,01,48,4.40
2006,02,21,01,49,4.50
2006,02,21,01,50,4.50
2006,02,21,01,51,4.50
2006,02,21,01,52,4.50
2006,02,21,01,53,4.50
2006,02,21,01,54,4.50
2006,02,21,01,55,4.40
2006,02,21,01,56,4.40
2006,02,21,01,57,4.40
2006,02,21,01,58,4.40
2006,02,21,01,59,4.40
2006,02,21,02,00,4.40
2006,02,21,02,01,4.40
2006,02,21,02,02,4.30
2006,02,21,02,03,4.30
2006,02,21,02,04,4.30
2006,02,21,02,05,4.30
2006,02,21,02,06,4.30
2006,02,21,02,07,4.20
2006,02,21,02,08,4.20
2006,02,21,02,09,4.20
2006,02,21,02,10,4.20
2006,02,21,02,11,4.20
2006,02,21,02,12,4.10
2006,02,21,02,13,4.10
2006,02,21,02,14,4.00
2006,02,21,02,15,4.00
2006,02,21,02,16,4.00
2006,02,21,02,17,3.90
2006,02,21,02,18,3.90
2006,02,21,02,19,3.80
2006,02,21,02,20,3.80
2006,02,21,02,21,3.80
2006,02,21,02,22,3.80
2006,02,21,02,23,3.80
2006,02,21,02,24,3.80
2006,02,21,02,25,3.80
2006,02,21,02,26,3.80
2006,02,21,02,27,3.80
2006,02,21,02,28,3.80
2006,02,21,02,29,3.90
2006,02,21,02,30,3.90
2006,02,21,02,31,3.90
2006,02,21,02,32,3.90
2006,02,21,02,33,3.90
2006,02,21,02,34,3.90
2006,02,21,02,35,4.00
2006,02,21,02,36,4.00
2006,02,21,02,37,4.00
2006,02,21,02,38,4.00
2006,02,21,02,39,4.00
2006,02,21,02,40,4.00
2006,02,21,02,41,4.00
2006,02,21,02,42,4.00
2006,02,21,02,43,4.00
2006,02,21,02,44,4.00
2006,02,21,02,45,4.00
2006,02,21,02,46,4.00
2006,02,21,02,47,4.00
2006,02,21,02,48,3.90
2006,02,21,02,49,3.90
2006,02,21,02,50,3.90
2006,02,21,02,51,3.90
2006,02,21,02,52,3.80
2006,02,21,02,53,3.80
2006,02,21,02,54,3.80
2006,02,21,02,55,3.80
2006,02,21,02,56,3.80
2006,02,21,02,57,3.80
2006,02,21,02,58,3.80
2006,02,21,02,59,3.80
2006,02,21,03,00,3.70
2006,02,21,03,01,3.70
2006,02,21,03,02,3.60
2006,02,21,03,03,3.50
2006,02,21,03,04,3.50
2006,02,21,03,05,3.40
2006,02,21,03,06,3.40
2006,02,21,03,07,3.30
2006,02,21,03,08,3.30
2006,02,21,03,09,3.30
2006,02,21,03,10,3.30
2006,02,21,03,11,3.20
2006,02,21,03,12,3.10
2006,02,21,03,13,3.10
2006,02,21,03,14,3.00
2006,02,21,03,15,2.90
2006,02,21,03,16,2.90
2006,02,21,03,17,2.80
2006,02,21,03,18,2.80
2006,02,21,03,19,2.70
2006,02,21,03,20,2.70
2006,02,21,03,21,2.70
2006,02,21,03,22,2.70
2006,02,21,03,23,2.70
2006,02,21,03,24,2.70
2006,02,21,03,25,2.70
2006,02,21,03,26,2.60
2006,02,21,03,27,2.60
2006,02,21,03,28,2.60
2006,02,21,03,29,2.60
2006,02,21,03,30,2.50
2006,02,21,03,31,2.50
2006,02,21,03,32,2.40
2006,02,21,03,33,2.40
2006,02,21,03,34,2.40
2006,02,21,03,35,2.30
2006,02,21,03,36,2.30
2006,02,21,03,37,2.30
2006,02,21,03,38,2.20
2006,02,21,03,39,2.20
2006,02,21,03,40,2.20
2006,02,21,03,41,2.10
2006,02,21,03,42,2.10
2006,02,21,03,43,2.10
2006,02,21,03,44,2.10
2006,02,21,03,45,2.00
2006,02,21,03,46,2.00
2006,02,21,03,47,2.00
2006,02,21,03,48,2.00
2006,02,21,03,49,1.90
2006,02,21,03,50,1.90
2006,02,21,03,51,1.80
2006,02,21,03,52,1.80
2006,02,21,03,53,1.80
2006,02,21,03,54,1.70
2006,02,21,03,55,1.60
2006,02,21,03,56,1.60
2006,02,21,03,57,1.50
2006,02,21,03,58,1.50
2006,02,21,03,59,1.50
2006,02,21,04,00,1.50
2006,02,21,04,01,1.50
2006,02,21,04,02,1.50
2006,02,21,04,03,1.40
2006,02,21,04,04,1.40
2006,02,21,04,05,1.40
2006,02,21,04,06,1.40
2006,02,21,04,07,1.40
2006,02,21,04,08,1.40
2006,02,21,04,09,1.40
2006,02,21,04,10,1.40
2006,02,21,04,11,1.40
2006,02,21,04,12,1.40
2006,02,21,04,13,1.40
2006,02,21,04,14,1.40
2006,02,21,04,15,1.40
2006,02,21,04,16,1.30
2006,02,21,04,17,1.30
2006,02,21,04,18,1.30
2006,02,21,04,19,1.30
2006,02,21,04,20,1.30
2006,02,21,04,21,1.30
2006,02,21,04,22,1.20
2006,02,21,04,23,1.20
2006,02,21,04,24,1.20
2006,02,21,04,25,1.20
2006,02,21,04,26,1.20
2006,02,21,04,27,1.20
2006,02,21,04,28,1.20
2006,02,21,04,29,1.20
2006,02,21,04,30,1.20
2006,02,21,04,31,1.20
2006,02,21,04,32,1.20
2006,02,21,04,33,1.10
2006,02,21,04,34,1.10
2006,02,21,04,35,1.10
2006,02,21,04,36,1.00
2006,02,21,04,37,1.00
2006,02,21,04,38,0.90
2006,02,21,04,39,0.90
2006,02,21,04,40,0.80
2006,02,21,04,41,0.80
2006,02,21,04,42,0.80
2006,02,21,04,43,0.80
2006,02,21,04,44,0.70
2006,02,21,04,45,0.70
2006,02,21,04,46,0.70
2006,02,21,04,47,0.70
2006,02,21,04,48,0.70
2006,02,21,04,49,0.70
2006,02,21,04,50,0.70
2006,02,21,04,51,0.70
2006,02,21,04,52,0.70
2006,02,21,04,53,0.70
2006,02,21,04,54,0.70
2006,02,21,04,55,0.70
2006,02,21,04,56,0.70
2006,02,21,04,57,0.60
2006,02,21,04,58,0.60
2006,02,21,04,59,0.60
2006,02,21,05,00,0.50
2006,02,21,05,01,0.50
2006,02,21,05,02,0.40
2006,02,21,05,03,0.40
2006,02,21,05,04,0.40
2006,02,21,05,05,0.40
2006,02,21,05,06,0.30
2006,02,21,05,07,0.30
2006,02,21,05,08,0.30
2006,02,21,05,09,0.20
2006,02,21,05,10,0.20
2006,02,21,05,11,0.20
2006,02,21,05,12,0.20
2006,02,21,05,13,0.20
2006,02,21,05,14,0.20
2006,02,21,05,15,0.20
2006,02,21,05,16,0.20
2006,02,21,05,17,0.10
2006,02,21,05,18,0.10
2006,02,21,05,19,0.10
2006,02,21,05,20,0.10
2006,02,21,05,21,0.00
2006,02,21,05,22,-0.10
2006,02,21,05,23,-0.10
2006,02,21,05,24,-0.10
2006,02,21,05,25,-0.10
2006,02,21,05,26,-0.10
2006,02,21,05,27,-0.10
2006,02,21,05,28,-0.10
2006,02,21,05,29,-0.10
2006,02,21,05,30,-0.10
2006,02,21,05,31,0.00
2006,02,21,05,32,0.10
2006,02,21,05,33,0.10
2006,02,21,05,34,0.10
2006,02,21,05,35,0.10
2006,02,21,05,36,0.10
2006,02,21,05,37,0.10
2006,02,21,05,38,0.10
2006,02,21,05,39,0.10
2006,02,21,05,40,0.10
2006,02,21,05,41,0.10
2006,02,21,05,42,0.10
2006,02,21,05,43,0.10
2006,02,21,05,44,0.10
2006,02,21,05,45,0.10
2006,02,21,05,46,0.10
2006,02,21,05,47,0.10
2006,02,21,05,48,0.10
2006,02,21,05,49,0.10
2006,02,21,05,50,0.10
2006,02,21,05,51,0.10
2006,02,21,05,52,0.10
2006,02,21,05,53,0.10
2006,02,21,05,54,0.10
2006,02,21,05,55,0.10
2006,02,21,05,56,0.10
2006,02,21,05,57,0.10
2006,02,21,05,58,0.10
2006,02,21,05,59,0.10
2006,02,21,06,00,0.10
2006,02,21,06,01,0.10
2006,02,21,06,02,0.10
2006,02,21,06,03,0.10
2006,02,21,06,04,0.10
2006,02,21,06,05,0.10
2006,02,21,06,06,0.10
2006,02,21,06,07,0.20
2006,02,21,06,08,0.20
2006,02,21,06,09,0.20
2006,02,21,06,10,0.20
2006,02,21,06,11,0.20
2006,02,21,06,12,0.20
2006,02,21,06,13,0.20
2006,02,21,06,14,0.20
2006,02,21,06,15,0.20
2006,02,21,06,16,0.20
2006,02,21,06,17,0.20
2006,02,21,06,18,0.10
2006,02,21,06,19,0.10
2006,02,21,06,20,0.10
2006,02,21,06,21,0.10
2006,02,21,06,22,0.10
2006,02,21,06,23,0.10
2006,02,21,06,24,0.00
2006,02,21,06,25,-0.10
2006,02,21,06,26,-0.10
2006,02,21,06,27,-0.10
2006,02,21,06,28,-0.10
2006,02,21,06,29,-0.20
2006,02,21,06,30,-0.20
2006,02,21,06,31,-0.20
2006,02,21,06,32,-0.10
2006,02,21,06,33,-0.10
2006,02,21,06,34,-0.10
2006,02,21,06,35,-0.10
2006,02,21,06,36,-0.10
2006,02,21,06,37,-0.20
2006,02,21,06,38,-0.30
2006,02,21,06,39,-0.30
2006,02,21,06,40,-0.30
2006,02,21,06,41,-0.30
2006,02,21,06,42,-0.30
2006,02,21,06,43,-0.30
2006,02,21,06,44,-0.30
2006,02,21,06,45,-0.30
2006,02,21,06,46,-0.30
2006,02,21,06,47,-0.20
2006,02,21,06,48,-0.20
2006,02,21,06,49,-0.20
2006,02,21,06,50,-0.20
2006,02,21,06,51,-0.10
2006,02,21,06,52,-0.10
2006,02,21,06,53,-0.10
2006,02,21,06,54,-0.10
2006,02,21,06,55,-0.10
2006,02,21,06,56,-0.10
2006,02,21,06,57,-0.10
2006,02,21,06,58,-0.10
2006,02,21,06,59,-0.10
2006,02,21,07,00,-0.10
2006,02,21,07,01,-0.10
2006,02,21,07,02,-0.10
2006,02,21,07,03,-0.10
2006,02,21,07,04,-0.10
2006,02,21,07,05,0.00
2006,02,21,07,06,0.10
2006,02,21,07,07,0.10
2006,02,21,07,08,0.10
2006,02,21,07,09,0.10
2006,02,21,07,10,0.10
2006,02,21,07,11,0.10
2006,02,21,07,12,0.10
2006,02,21,07,13,0.10
2006,02,21,07,14,0.10
2006,02,21,07,15,0.10
2006,02,21,07,16,0.10
2006,02,21,07,17,0.10
2006,02,21,07,18,0.10
2006,02,21,07,19,0.10
2006,02,21,07,20,0.10
2006,02,21,07,21,0.10
2006,02,21,07,22,0.10
2006,02,21,07,23,0.10
2006,02,21,07,24,0.20
2006,02,21,07,25,0.20
2006,02,21,07,26,0.30
2006,02,21,07,27,0.30
2006,02,21,07,28,0.40
2006,02,21,07,29,0.40
2006,02,21,07,30,0.40
2006,02,21,07,31,0.40
2006,02,21,07,32,0.40
2006,02,21,07,33,0.40
2006,02,21,07,34,0.40
2006,02,21,07,35,0.40
2006,02,21,07,36,0.40
2006,02,21,07,37,0.40
2006,02,21,07,38,0.40
2006,02,21,07,39,0.40
2006,02,21,07,40,0.40
2006,02,21,07,41,0.40
2006,02,21,07,42,0.40
2006,02,21,07,43,0.40
2006,02,21,07,44,0.40
2006,02,21,07,45,0.40
2006,02,21,07,46,0.40
2006,02,21,07,47,0.40
2006,02,21,07,48,0.40
2006,02,21,07,49,0.40
2006,02,21,07,50,0.40
2006,02,21,07,51,0.40
2006,02,21,07,52,0.50
2006,02,21,07,53,0.60
2006,02,21,07,54,0.60
2006,02,21,07,55,0.60
2006,02,21,07,56,0.60
2006,02,21,07,57,0.60
2006,02,21,07,58,0.70
2006,02,21,07,59,0.70
2006,02,21,08,00,0.70
2006,02,21,08,01,0.80
2006,02,21,08,02,0.80
2006,02,21,08,03,0.80
2006,02,21,08,04,0.90
2006,02,21,08,05,0.90
2006,02,21,08,06,1.00
2006,02,21,08,07,1.00
2006,02,21,08,08,1.10
2006,02,21,08,09,1.10
2006,02,21,08,10,1.10
2006,02,21,08,11,1.20
2006,02,21,08,12,1.20
2006,02,21,08,13,1.10
2006,02,21,08,14,1.10
2006,02,21,08,15,1.10
2006,02,21,08,16,1.10
2006,02,21,08,17,1.10
2006,02,21,08,18,1.10
2006,02,21,08,19,1.10
2006,02,21,08,20,1.10
2006,02,21,08,21,1.10
2006,02,21,08,22,1.10
2006,02,21,08,23,1.10
2006,02,21,08,24,1.20
2006,02,21,08,25,1.20
2006,02,21,08,26,1.20
2006,02,21,08,27,1.20
2006,02,21,08,28,1.30
2006,02,21,08,29,1.30
2006,02,21,08,30,1.40
2006,02,21,08,31,1.50
2006,02,21,08,32,1.60
2006,02,21,08,33,1.70
2006,02,21,08,34,1.80
2006,02,21,08,35,1.90
2006,02,21,08,36,2.00
2006,02,21,08,37,2.00
2006,02,21,08,38,2.10
2006,02,21,08,39,2.20
2006,02,21,08,40,2.20
2006,02,21,08,41,2.30
2006,02,21,08,42,2.30
2006,02,21,08,43,2.40
2006,02,21,08,44,2.50
2006,02,21,08,45,2.60
2006,02,21,08,46,2.70
2006,02,21,08,47,2.70
2006,02,21,08,48,2.80
2006,02,21,08,49,2.80
2006,02,21,08,50,2.90
2006,02,21,08,51,2.90
2006,02,21,08,52,2.90
2006,02,21,08,53,2.90
2006,02,21,08,54,2.90
2006,02,21,08,55,3.00
2006,02,21,08,56,3.10
2006,02,21,08,57,3.10
2006,02,21,08,58,3.10
2006,02,21,08,59,3.10
2006,02,21,09,00,3.10
2006,02,21,09,01,3.10
2006,02,21,09,02,3.10
2006,02,21,09,03,3.20
2006,02,21,09,04,3.30
2006,02,21,09,05,3.40
2006,02,21,09,06,3.50
2006,02,21,09,07,3.60
2006,02,21,09,08,3.70
2006,02,21,09,09,3.80
2006,02,21,09,10,3.90
2006,02,21,09,11,4.00
2006,02,21,09,12,4.20
2006,02,21,09,13,4.30
2006,02,21,09,14,4.40
2006,02,21,09,15,4.50
2006,02,21,09,16,4.60
2006,02,21,09,17,4.70
2006,02,21,09,18,4.80
2006,02,21,09,19,4.90
2006,02,21,09,20,4.90
2006,02,21,09,21,5.10
2006,02,21,09,22,5.10
2006,02,21,09,23,5.10
2006,02,21,09,24,5.20
2006,02,21,09,25,5.20
2006,02,21,09,26,5.30
2006,02,21,09,27,5.30
2006,02,21,09,28,5.30
2006,02,21,09,29,5.40
2006,02,21,09,30,5.40
2006,02,21,09,31,5.40
2006,02,21,09,32,5.50
2006,02,21,09,33,5.50
2006,02,21,09,34,5.50
2006,02,21,09,35,5.50
2006,02,21,09,36,5.60
2006,02,21,09,37,5.60
2006,02,21,09,38,5.60
2006,02,21,09,39,5.60
2006,02,21,09,40,5.60
2006,02,21,09,41,5.60
2006,02,21,09,42,5.60
2006,02,21,09,43,5.60
2006,02,21,09,44,5.60
2006,02,21,09,45,5.70
2006,02,21,09,46,5.70
2006,02,21,09,47,5.80
2006,02,21,09,48,5.90
2006,02,21,09,49,6.00
2006,02,21,09,50,6.10
2006,02,21,09,51,6.20
2006,02,21,09,52,6.30
2006,02,21,09,53,6.30
2006,02,21,09,54,6.40
2006,02,21,09,55,6.40
2006,02,21,09,56,6.50
2006,02,21,09,57,6.60
2006,02,21,09,58,6.60
2006,02,21,09,59,6.60
2006,02,21,10,00,6.60
2006,02,21,10,01,6.60
2006,02,21,10,02,6.70
2006,02,21,10,03,6.70
2006,02,21,10,04,6.80
2006,02,21,10,05,6.80
2006,02,21,10,06,6.80
2006,02,21,10,07,6.80
2006,02,21,10,08,6.80
2006,02,21,10,09,6.80
2006,02,21,10,10,6.80
2006,02,21,10,11,6.80
2006,02,21,10,12,6.80
2006,02,21,10,13,6.80
2006,02,21,10,14,6.80
2006,02,21,10,15,6.80
2006,02,21,10,16,6.80
2006,02,21,10,17,6.80
2006,02,21,10,18,6.70
2006,02,21,10,19,6.70
2006,02,21,10,20,6.70
2006,02,21,10,21,6.60
2006,02,21,10,22,6.60
2006,02,21,10,23,6.60
2006,02,21,10,24,6.60
2006,02,21,10,25,6.60
2006,02,21,10,26,6.70
2006,02,21,10,27,6.90
2006,02,21,10,28,7.00
2006,02,21,10,29,7.10
2006,02,21,10,30,7.20
2006,02,21,10,31,7.30
2006,02,21,10,32,7.30
2006,02,21,10,33,7.30
2006,02,21,10,34,7.30
2006,02,21,10,35,7.30
2006,02,21,10,36,7.30
2006,02,21,10,37,7.20
2006,02,21,10,38,7.30
2006,02,21,10,39,7.30
2006,02,21,10,40,7.40
2006,02,21,10,41,7.30
2006,02,21,10,42,7.40
2006,02,21,10,43,7.30
2006,02,21,10,44,7.30
2006,02,21,10,45,7.20
2006,02,21,10,46,7.20
2006,02,21,10,47,7.10
2006,02,21,10,48,7.10
2006,02,21,10,49,7.10
2006,02,21,10,50,7.10
2006,02,21,10,51,7.10
2006,02,21,10,52,7.10
2006,02,21,10,53,7.10
2006,02,21,10,54,7.00
2006,02,21,10,55,7.00
2006,02,21,10,56,7.00
2006,02,21,10,57,7.00
2006,02,21,10,58,7.00
2006,02,21,10,59,7.00
2006,02,21,11,00,7.10
2006,02,21,11,01,7.20
2006,02,21,11,02,7.20
2006,02,21,11,03,7.30
2006,02,21,11,04,7.30
2006,02,21,11,05,7.50
2006,02,21,11,06,7.50
2006,02,21,11,07,7.60
2006,02,21,11,08,7.70
2006,02,21,11,09,7.70
2006,02,21,11,10,7.60
2006,02,21,11,11,7.60
2006,02,21,11,12,7.60
2006,02,21,11,13,7.60
2006,02,21,11,14,7.70
2006,02,21,11,15,7.70
2006,02,21,11,16,7.80
2006,02,21,11,17,7.80
2006,02,21,11,18,7.80
2006,02,21,11,19,7.80
2006,02,21,11,20,7.80
2006,02,21,11,21,7.80
2006,02,21,11,22,7.80
2006,02,21,11,23,7.80
2006,02,21,11,24,7.80
2006,02,21,11,25,7.80
2006,02,21,11,26,7.80
2006,02,21,11,27,7.80
2006,02,21,11,28,7.80
2006,02,21,11,29,7.90
2006,02,21,11,30,7.90
2006,02,21,11,31,8.00
2006,02,21,11,32,8.00
2006,02,21,11,33,8.00
2006,02,21,11,34,8.00
2006,02,21,11,35,8.00
2006,02,21,11,36,8.10
2006,02,21,11,37,8.00
2006,02,21,11,38,8.00
2006,02,21,11,39,7.90
2006,02,21,11,40,7.90
2006,02,21,11,41,7.90
2006,02,21,11,42,7.90
2006,02,21,11,43,7.90
2006,02,21,11,44,7.90
2006,02,21,11,45,7.90
2006,02,21,11,46,7.80
2006,02,21,11,47,7.80
2006,02,21,11,48,7.80
2006,02,21,11,49,7.80
2006,02,21,11,50,7.80
2006,02,21,11,51,7.80
2006,02,21,11,52,7.80
2006,02,21,11,53,7.90
2006,02,21,11,54,7.80
2006,02,21,11,55,7.80
2006,02,21,11,56,7.80
2006,02,21,11,57,7.80
2006,02,21,11,58,7.80
2006,02,21,11,59,7.90
2006,02,21,12,00,7.90
2006,02,21,12,01,8.00
2006,02,21,12,02,8.00
2006,02,21,12,03,8.10
2006,02,21,12,04,8.20
2006,02,21,12,05,8.30
2006,02,21,12,06,8.30
2006,02,21,12,07,8.40
2006,02,21,12,08,8.50
2006,02,21,12,09,8.50
2006,02,21,12,10,8.50
2006,02,21,12,11,8.40
2006,02,21,12,12,8.30
2006,02,21,12,13,8.10
2006,02,21,12,14,7.80
2006,02,21,12,15,7.60
2006,02,21,12,16,7.50
2006,02,21,12,17,7.50
2006,02,21,12,18,7.50
2006,02,21,12,19,7.60
2006,02,21,12,20,7.60
2006,02,21,12,21,7.60
2006,02,21,12,22,7.60
2006,02,21,12,23,7.50
2006,02,21,12,24,7.50
2006,02,21,12,25,7.40
2006,02,21,12,26,7.50
2006,02,21,12,27,7.50
2006,02,21,12,28,7.60
2006,02,21,12,29,7.60
2006,02,21,12,30,7.50
2006,02,21,12,31,7.50
2006,02,21,12,32,7.50
2006,02,21,12,33,7.50
2006,02,21,12,34,7.40
2006,02,21,12,35,7.40
2006,02,21,12,36,7.30
2006,02,21,12,37,7.20
2006,02,21,12,38,7.20
2006,02,21,12,39,7.20
2006,02,21,12,40,7.20
2006,02,21,12,41,7.20
2006,02,21,12,42,7.20
2006,02,21,12,43,7.30
2006,02,21,12,44,7.30
2006,02,21,12,45,7.30
2006,02,21,12,46,7.40
2006,02,21,12,47,7.40
2006,02,21,12,48,7.40
2006,02,21,12,49,7.40
2006,02,21,12,50,7.50
2006,02,21,12,51,7.50
2006,02,21,12,52,7.50
2006,02,21,12,53,7.60
2006,02,21,12,54,7.60
2006,02,21,12,55,7.70
2006,02,21,12,56,7.70
2006,02,21,12,57,7.70
2006,02,21,12,58,7.70
2006,02,21,12,59,7.70
2006,02,21,13,00,7.60
2006,02,21,13,01,7.60
2006,02,21,13,02,7.60
2006,02,21,13,03,7.60
2006,02,21,13,04,7.60
2006,02,21,13,05,7.60
2006,02,21,13,06,7.50
2006,02,21,13,07,7.50
2006,02,21,13,08,7.50
2006,02,21,13,09,7.50
2006,02,21,13,10,7.50
2006,02,21,13,11,7.50
2006,02,21,13,12,7.50
2006,02,21,13,13,7.60
2006,02,21,13,14,7.60
2006,02,21,13,15,7.70
2006,02,21,13,16,7.80
2006,02,21,13,17,7.80
2006,02,21,13,18,7.80
2006,02,21,13,19,7.80
2006,02,21,13,20,7.90
2006,02,21,13,21,7.90
2006,02,21,13,22,7.90
2006,02,21,13,23,7.90
2006,02,21,13,24,7.80
2006,02,21,13,25,7.80
2006,02,21,13,26,7.80
2006,02,21,13,27,7.80
2006,02,21,13,28,7.80
2006,02,21,13,29,7.80
2006,02,21,13,30,7.80
2006,02,21,13,31,7.80
2006,02,21,13,32,7.80
2006,02,21,13,33,7.70
2006,02,21,13,34,7.70
2006,02,21,13,35,7.70
2006,02,21,13,36,7.70
2006,02,21,13,37,7.70
2006,02,21,13,38,7.70
2006,02,21,13,39,7.70
2006,02,21,13,40,7.70
2006,02,21,13,41,7.70
2006,02,21,13,42,7.70
2006,02,21,13,43,7.80
2006,02,21,13,44,7.80
2006,02,21,13,45,7.80
2006,02,21,13,46,7.90
2006,02,21,13,47,8.00
2006,02,21,13,48,8.20
2006,02,21,13,49,8.30
2006,02,21,13,50,8.50
2006,02,21,13,51,8.60
2006,02,21,13,52,8.70
2006,02,21,13,53,8.90
2006,02,21,13,54,9.00
2006,02,21,13,55,9.00
2006,02,21,13,56,9.00
2006,02,21,13,57,8.80
2006,02,21,13,58,8.70
2006,02,21,13,59,8.60
2006,02,21,14,00,8.50
2006,02,21,14,01,8.50
2006,02,21,14,02,8.40
2006,02,21,14,03,8.30
2006,02,21,14,04,8.30
2006,02,21,14,05,8.30
2006,02,21,14,06,8.30
2006,02,21,14,07,8.30
2006,02,21,14,08,8.30
2006,02,21,14,09,8.30
2006,02,21,14,10,8.30
2006,02,21,14,11,8.30
2006,02,21,14,12,8.20
2006,02,21,14,13,8.20
2006,02,21,14,14,8.20
2006,02,21,14,15,8.20
2006,02,21,14,16,8.20
2006,02,21,14,17,8.20
2006,02,21,14,18,8.20
2006,02,21,14,19,8.10
2006,02,21,14,20,8.10
2006,02,21,14,21,8.00
2006,02,21,14,22,8.00
2006,02,21,14,23,8.10
2006,02,21,14,24,8.10
2006,02,21,14,25,8.20
2006,02,21,14,26,8.20
2006,02,21,14,27,8.20
2006,02,21,14,28,8.20
2006,02,21,14,29,8.30
2006,02,21,14,30,8.30
2006,02,21,14,31,8.30
2006,02,21,14,32,8.40
2006,02,21,14,33,8.50
2006,02,21,14,34,8.50
2006,02,21,14,35,8.50
2006,02,21,14,36,8.50
2006,02,21,14,37,8.40
2006,02,21,14,38,8.40
2006,02,21,14,39,8.30
2006,02,21,14,40,8.30
2006,02,21,14,41,8.30
2006,02,21,14,42,8.30
2006,02,21,14,43,8.30
2006,02,21,14,44,8.30
2006,02,21,14,45,8.30
2006,02,21,14,46,8.30
2006,02,21,14,47,8.30
2006,02,21,14,48,8.30
2006,02,21,14,49,8.30
2006,02,21,14,50,8.30
2006,02,21,14,51,8.30
2006,02,21,14,52,8.30
2006,02,21,14,53,8.30
2006,02,21,14,54,8.30
2006,02,21,14,55,8.30
2006,02,21,14,56,8.40
2006,02,21,14,57,8.40
2006,02,21,14,58,8.40
2006,02,21,14,59,8.30
2006,02,21,15,00,8.20
2006,02,21,15,01,8.20
2006,02,21,15,02,8.20
2006,02,21,15,03,8.20
2006,02,21,15,04,8.20
2006,02,21,15,05,8.20
2006,02,21,15,06,8.20
2006,02,21,15,07,8.20
2006,02,21,15,08,8.20
2006,02,21,15,09,8.30
2006,02,21,15,10,8.40
2006,02,21,15,11,8.40
2006,02,21,15,12,8.40
2006,02,21,15,13,8.40
2006,02,21,15,14,8.40
2006,02,21,15,15,8.50
2006,02,21,15,16,8.40
2006,02,21,15,17,8.40
2006,02,21,15,18,8.30
2006,02,21,15,19,8.30
2006,02,21,15,20,8.20
2006,02,21,15,21,8.20
2006,02,21,15,22,8.20
2006,02,21,15,23,8.20
2006,02,21,15,24,8.20
2006,02,21,15,25,8.20
2006,02,21,15,26,8.20
2006,02,21,15,27,8.30
2006,02,21,15,28,8.30
2006,02,21,15,29,8.30
2006,02,21,15,30,8.30
2006,02,21,15,31,8.30
2006,02,21,15,32,8.30
2006,02,21,15,33,8.30
2006,02,21,15,34,8.30
2006,02,21,15,35,8.30
2006,02,21,15,36,8.30
2006,02,21,15,37,8.30
2006,02,21,15,38,8.20
2006,02,21,15,39,8.20
2006,02,21,15,40,8.20
2006,02,21,15,41,8.20
2006,02,21,15,42,8.20
2006,02,21,15,43,8.30
2006,02,21,15,44,8.30
2006,02,21,15,45,8.30
2006,02,21,15,46,8.30
2006,02,21,15,47,8.40
2006,02,21,15,48,8.40
2006,02,21,15,49,8.40
2006,02,21,15,50,8.40
2006,02,21,15,51,8.50
2006,02,21,15,52,8.50
2006,02,21,15,53,8.50
2006,02,21,15,54,8.50
2006,02,21,15,55,8.60
2006,02,21,15,56,8.60
2006,02,21,15,57,8.70
2006,02,21,15,58,8.70
2006,02,21,15,59,8.70
2006,02,21,16,00,8.70
2006,02,21,16,01,8.70
2006,02,21,16,02,8.80
2006,02,21,16,03,8.90
2006,02,21,16,04,8.90
2006,02,21,16,05,9.00
2006,02,21,16,06,9.10
2006,02,21,16,07,9.10
2006,02,21,16,08,9.10
2006,02,21,16,09,9.10
2006,02,21,16,10,9.10
2006,02,21,16,11,9.00
2006,02,21,16,12,9.00
2006,02,21,16,13,9.00
2006,02,21,16,14,8.90
2006,02,21,16,15,8.90
2006,02,21,16,16,8.90
2006,02,21,16,17,8.80
2006,02,21,16,18,8.70
2006,02,21,16,19,8.70
2006,02,21,16,20,8.70
2006,02,21,16,21,8.70
2006,02,21,16,22,8.60
2006,02,21,16,23,8.50
2006,02,21,16,24,8.50
2006,02,21,16,25,8.40
2006,02,21,16,26,8.40
2006,02,21,16,27,8.40
2006,02,21,16,28,8.40
2006,02,21,16,29,8.30
2006,02,21,16,30,8.30
2006,02,21,16,31,8.30
2006,02,21,16,32,8.30
2006,02,21,16,33,8.20
2006,02,21,16,34,8.20
2006,02,21,16,35,8.20
2006,02,21,16,36,8.20
2006,02,21,16,37,8.10
2006,02,21,16,38,8.10
2006,02,21,16,39,8.00
2006,02,21,16,40,8.00
2006,02,21,16,41,8.00
2006,02,21,16,42,8.00
2006,02,21,16,43,8.00
2006,02,21,16,44,7.90
2006,02,21,16,45,7.90
2006,02,21,16,46,7.90
2006,02,21,16,47,8.00
2006,02,21,16,48,8.00
2006,02,21,16,49,8.00
2006,02,21,16,50,8.00
2006,02,21,16,51,8.00
2006,02,21,16,52,8.00
2006,02,21,16,53,7.90
2006,02,21,16,54,7.90
2006,02,21,16,55,7.90
2006,02,21,16,56,7.90
2006,02,21,16,57,7.90
2006,02,21,16,58,7.90
2006,02,21,16,59,7.90
2006,02,21,17,00,7.90
2006,02,21,17,01,7.90
2006,02,21,17,02,7.90
2006,02,21,17,03,7.90
2006,02,21,17,04,7.90
2006,02,21,17,05,7.90
2006,02,21,17,06,7.90
2006,02,21,17,07,7.90
2006,02,21,17,08,7.90
2006,02,21,17,09,7.80
2006,02,21,17,10,7.80
2006,02,21,17,11,7.80
2006,02,21,17,12,7.80
2006,02,21,17,13,7.80
2006,02,21,17,14,7.80
2006,02,21,17,15,7.80
2006,02,21,17,16,7.70
2006,02,21,17,17,7.70
2006,02,21,17,18,7.70
2006,02,21,17,19,7.70
2006,02,21,17,20,7.70
2006,02,21,17,21,7.70
2006,02,21,17,22,7.70
2006,02,21,17,23,7.70
2006,02,21,17,24,7.70
2006,02,21,17,25,7.70
2006,02,21,17,26,7.70
2006,02,21,17,27,7.60
2006,02,21,17,28,7.60
2006,02,21,17,29,7.60
2006,02,21,17,30,7.60
2006,02,21,17,31,7.60
2006,02,21,17,32,7.60
2006,02,21,17,33,7.60
2006,02,21,17,34,7.50
2006,02,21,17,35,7.50
2006,02,21,17,36,7.50
2006,02,21,17,37,7.50
2006,02,21,17,38,7.50
2006,02,21,17,39,7.50
2006,02,21,17,40,7.50
2006,02,21,17,41,7.50
2006,02,21,17,42,7.50
2006,02,21,17,43,7.40
2006,02,21,17,44,7.40
2006,02,21,17,45,7.40
2006,02,21,17,46,7.40
2006,02,21,17,47,7.40
2006,02,21,17,48,7.40
2006,02,21,17,49,7.40
2006,02,21,17,50,7.40
2006,02,21,17,51,7.40
2006,02,21,17,52,7.40
2006,02,21,17,53,7.40
2006,02,21,17,54,7.40
2006,02,21,17,55,7.40
2006,02,21,17,56,7.40
2006,02,21,17,57,7.30
2006,02,21,17,58,7.30
2006,02,21,17,59,7.30
2006,02,21,18,00,7.30
2006,02,21,18,01,7.30
2006,02,21,18,02,7.30
2006,02,21,18,03,7.30
2006,02,21,18,04,7.30